[Date Prev][Date Next][Thread Prev][Thread Next] - [Date Index][Thread Index][Author Index]

2 Line ISS Keps 5-20



ISS
1 25544U 98067A   02140.13894693  .00029013  00000-0  36269-3 0  4674
2 25544  51.6364 193.9593 0006788  96.3629 307.4814 15.59558804199657


----
Via the sarex mailing list at AMSAT.ORG courtesy of AMSAT-NA.
To unsubscribe, send "unsubscribe sarex" to Majordomo@amsat.org



AMSAT Top AMSAT Home